Погода в Погиби

Погода в Погиби : погода сейчас, прогноз погоды и архив. Всё, что Вы хотите узнать о погоде в Погиби!

Хотите узнать прогноз погоды в Погиби? Тогда Вам сюда: Погода в Погиби

Поиск расширенной информации на нашем сайте:

Другие новости

Новости СМИ2

Главная страница сайта

Новости сайта

02.10.2013

Напоминаем, что на нашем новом сайте вы можете получить высокодетализированные прогнозы погоды по пунктам России, СНГ и мира (включающие важные для авиации метеовеличины, такие как направление и скорость ветра, видимость, явления погоды, количество и форма облачности, нижняя и верхняя граница облачности), а также ознакомиться с разнообразными материалами по авиационной метеорологии и подборкой полезных ссылок на эту тему.

Сайт Метеоцентр.Азия посвящён разработке технологий оптимизации авиаметеорологического обслуживания, включая проектирование и перспективное создание нескольких автоматизированных авиаметеорологических систем:
- система выпуска высокодетальных прогностических карт явлений погоды для нижнего воздушного пространства по России и ближнему зарубежью;
- система верификации прогнозов TAF (выпускаемых синоптиками официальных АМСГ РФ и ближнего зарубежья) и AUTOTAF (выпускаемых сайтом Метеоцентр.Азия) - выявление ошибок, онлайн-сопоставление с фактической погодой METAR, автоматическое внесение коррективов в прогнозы при резком отклонении фактической погоды от прогноза, подсчёт оправдываемости прогнозов по элементам и в целом;
- система обработки, анализа и отображения авиаметеорологической информации для применения провайдерами метеорологической информации.


Погода в Погиби - сегодня

Время (UTC), дата Ветер
(°,м/с) 
Видим.   Явления Облачность Т
(°С)
Тd
(°С)
f(%) Тe
(°С)
Pmin
(гПа)
dP
(гПа)
Po
(мм)
O2
(г/м3)
Тmin Tmax R s Состояние
почвы
09 24.03.17 020 (С) 4-6{07}  20000 м    8/0 средняя, верхняя 
[Ac trans|Ci sp]
-3.1 -8.1 68 -6  1015.5  0.9  761  311    -0.5       
12 24.03.17 020 (С) 1-2{06}  20000 м    6/0 верхняя 
[Ci sp]
-4.6 -9.4 69 -4  1015.5  761  313           
15 24.03.17 020 (С) 1-2{03}  20000 м    6/0 верхняя 
[Ci sp]
-7 -9.9 80 -7  1015.5  761  316           
18 24.03.17 020 (С) 1-2{03}  20000 м    8/0 средняя, верхняя 
[Ac trans|Ci sp]
-7.2 -9.3 85 -7  1015.5  761  316           
21 24.03.17 360 (С) 1-2{03}  10 км  слаб. ливневой снег  10/10 600 м кучево-дожд. 
[Cb cap]
-7.4 -8.7 90 -7  1015.9  0.4  761  316  -7.4    91  очень
неравномерный
сухой снег
(сугробы, заносы) 
00 25.03.17 360 (С) 2-3{04}  20000 м  {ливн. осадки}  10/10 600 м кучево-дожд. 
[Cb cap]
-4 -5.5 89 -5  1016.8  0.9  762  312           
03 25.03.17 360 (С) 2-3{04}  20000 м    9/9 600 м кучево-дожд. 
[Cb cap]
-2.1 -4.6 83 -3  1017.1  0.3  762  310           
06 25.03.17 360 (С) 2-3{04}  20000 м    9/9 600 м кучево-дожд. 
[Cb cap]
-1.4 -5.4 74 -2  1016.8  -0.3  762  309           
09 25.03.17 340 (С) 1-2{03}  20000 м    8/4 600 м кучево-дожд., средняя 
[Cb cap|Ac trans]
-4.3 -6.6 84 -4  1017.5  0.7  762  313    -0.6  0.5     
12 25.03.17 340 (С) 1-1{02}  20000 м    4/0 верхняя 
[Ci sp]
-6.4 -8.4 86 -6  1018.1  0.6  763  316           
15 25.03.17 тихо () -0{01}  20000 м    ясно 
-11 -11.6 95 -11  1018.1  763  321           
18 25.03.17 тихо () -0{01}  20000 м    ясно 
-12.4 -13 95 -12  1018.1  763  323           
21 25.03.17 180 (Ю) 1-2{03}  20000 м    6/0 средняя, верхняя 
[Ac trans|Ci sp]
-13.2 -14.5 90 -13  1018.3  0.2  763  324  -13.4      92  очень
неравномерный
сухой снег
(сугробы, заносы) 
00 26.03.17 160 (Ю) 2-3{04}  20000 м    6/0 средняя, верхняя 
[Ac trans|Ci sp]
-6 -7.1 92 -7  1017.9  -0.4  763  315           
03 26.03.17 160 (Ю) 2-3{04}  20000 м    3/0 верхняя 
[Ci sp]
-2.2 -5.1 80 -3  1018.1  0.2  763  310           
06 26.03.17 160 (Ю) 3-4{05}  20000 м    4/0 верхняя 
[Ci sp]
-1.2 -4.1 81 -3  1017.3  -0.8  762  309           
09 26.03.17 160 (Ю) 2-3{04}  20000 м    3/0 верхняя 
[Ci sp]
-5 -6.3 91 -6  1017.5  0.2  762  314    -0.8       
12 26.03.17 160 (Ю) 2-3{04}  20000 м    4/0 верхняя 
[Ci sp]
-8.6 -9.3 95 -10  1017.7  0.2  763  318           
15 26.03.17 160 (Ю) 2-3{04}  4000 м  дымка  10/0 средняя 
[As op]
-9.4 -10.1 95 -11  1017.5  -0.2  762  319           
18 26.03.17 020 (С) 2-1{04}  4000 м  дымка  10/0 средняя 
[As op]
-10.7 -11.3 95 -13  1017.2  -0.3  762  321           
21 26.03.17 360 (С) 2-3{04}  4000 м  дымка  9/0 средняя, верхняя 
[Ac trans|Ci sp]
-14.2 -14.2 100 -16  1016.8  -0.4  762  325  -14.4      92  очень
неравномерный
сухой снег
(сугробы, заносы) 
00 27.03.17 360 (С) 2-3{03}  4000 м  дымка  10/0 средняя 
[As trans]
-12 -12.6 95 -14  1016.8  762  322           
03 27.03.17 360 (С) 2-3{04}  20000 м    5/3 1000 м верхняя 
[Cu med, cong|Ci sp]
-8 -9 93 -10  1015.8  -1  761  317           
06 27.03.17 360 (С) 3-4{05}  20000 м    8/3 1000 м верхняя 
[Cu med, cong|Ci sp]
-3.1 -5.8 82 -5  1014.4  -1.4  760  310           
09 27.03.17 360 (С) 2-3{04}  20000 м    9/5 600 м кучево-дожд., средняя, верхняя 
[Cb cap|Ac trans|Ci sp]
-5.6 -8.2 82 -7  1014.2  -0.2  760  314    -2.5       
Время (UTC), дата Ветер
(°,м/с) 
Видим.   Явления Облачность Т
(°С)
Тd
(°С)
f(%) Тe
(°С)
Pmin
(гПа)
dP
(гПа)
Po
(мм)
O2
(г/м3)
Тmin Tmax R s Состояние
почвы

Для получения пояснительной информации подведите курсор к названию столбца.

ПОГОДА в Погиби - архив

Всё, что Вы хотите узнать о погоде в Погиби - удобно и подробно!

Выберите нужную дату (начиная с 1 января 2015* года) и нажмите кнопку "Найти".
Будут отображены архивные сводки погоды по пункту Погиби, начиная с указанной даты.


Отображать данные в формате CSV (для использования в таблицах Excel)


Внимание! Наш архив погоды предназначен исключительно для личного некоммерческого использования в познавательных целях. Если Вам необходимы официальные справки о состоянии погоды (для производственных, юридических, коммерческих и т.п. целей), обращайтесь в органы Росгидромета.

*Примечание: данная дата относится к архиву по метеостанциям СССР (Россия, СНГ, Балтия).
Архив по метеостанциям Зарубежной Европы и Азии (кроме Китая) хранится 10 дней, по другим регионам земного шара (Китай, Африка, Америка, Австралия, Океания) - 1 день.

Погиби - район местоположения метеостанции


Название, широта, долгота, высота метеостанции:
Погиби 52.2°ш. 141.6°д. 6 м над ур. моря [Российская Федерация]

Дополнительная информация

В oтличие oт бoльшинства пoгoдных сайтoв мы публикуем пoдрoбную метеoинфoрмацию в детальнoм прoфессиoнальнoм фoрмате.

Характеристики температуры и влажнoсти вoздуха измеряются на высoте 2 м в тени вдали oт зданий и деревьев.
Скoрoсть ветра измеряется на высoте 10 м (на урoвне рoста челoвека скoрoсть ветра ниже в 1.5-2 раза). Если метеoстанция нахoдится в гoрoде или в лесу, тo скoрoсть ветра занижена на 2-4 м/с пo сравнению с oткрытым местoм. Скoрoсть ветра над акватoриями крупных рек и oзёр, а также на вершинах хoлмoв на 2-5 м/с выше, чем в oбычных услoвиях.
Атмoсфернoе давление в разных тoчках местнoсти мoжет значительнo oтличаться oт давления на метеoстанции, в зависимoсти oт услoвий рельефа (при пoдъёме на 10 м давление пoнижается примернo на 1 мм рт.ст.).